1508983200.89,31293,12.25,73986.3,-0.55,-1.55,-1.55,0,*6A
1508983202.1,31294,12.25,74008.8,-0.55,-1.55,-1.55,0,*6D
1508983203.34,31295,12.25,74004.8,-0.57,-1.43,-1.43,0,*6E
1508983204.55,31296,12.25,74002.8,-0.55,-1.55,-1.55,0,*6F
1508983205.79,31297,12.25,74012.3,-0.55,-1.33,-1.39,0,*64
1508983206.98,31298,12.25,74016.5,-0.53,-1.33,-1.33,0,*67
1508983208.2,31299,12.25,74008.0,-0.55,-1.33,-1.33,0,*60
1508983209.4,31300,12.25,74006.8,-0.55,-1.63,-1.55,0,*64
1508983210.62,31301,12.25,74006.3,-0.55,-1.33,-1.33,0,*60
1508983211.81,31302,12.25,74010.0,-0.57,-1.29,-1.29,0,*61
1508983213.0,31303,12.25,74008.3,-0.57,-1.29,-1.29,0,*60
1508983214.19,31304,12.25,74008.3,-0.57,-1.21,-1.33,0,*64
1508983215.38,31305,12.25,74014.3,-0.53,-1.29,-1.29,0,*62
1508983216.6,31306,12.25,74012.3,-0.55,-1.29,-1.29,0,*67
1508983217.84,31307,12.25,74014.3,-0.55,-1.33,-1.43,0,*61
1508983219.08,31308,12.25,74010.3,-0.55,-1.33,-1.39,0,*63
1508983220.3,31309,12.25,74016.5,-0.55,-1.33,-1.33,0,*68
1508983221.51,31310,12.25,74008.3,-0.55,-1.29,-1.33,0,*6B
1508983222.73,31311,12.25,74014.0,-0.55,-1.29,-1.29,0,*61
1508983223.94,31312,12.25,74010.5,-0.55,-1.33,-1.33,0,*62
1508983225.15,31313,12.25,74002.8,-0.53,-1.55,-1.43,0,*62
1508983226.39,31314,12.25,73992.5,-0.55,-1.51,-1.43,0,*67
1508983227.63,31315,12.25,73988.8,-0.53,-1.43,-1.43,0,*63
1508983228.87,31316,12.25,74002.5,-0.55,-1.39,-1.33,0,*6C
1508983230.08,31317,12.25,74002.5,-0.55,-1.33,-1.33,0,*67
1508983231.3,31318,12.25,74008.8,-0.55,-1.33,-1.33,0,*68
1508983232.49,31319,12.25,74006.8,-0.53,-1.29,-1.29,0,*6F
1508983233.73,31320,12.25,74004.5,-0.53,-1.39,-1.39,0,*65
1508983234.98,31321,12.25,74008.3,-0.55,-1.33,-1.39,0,*68
1508983236.22,31322,12.25,74004.0,-0.55,-1.39,-1.29,0,*60
1508983237.43,31323,12.25,74008.3,-0.53,-1.39,-1.33,0,*6C
1508983238.71,31324,12.25,74014.0,-0.55,-1.39,-1.39,0,*67
1508983239.89,31325,12.25,74010.0,-0.53,-1.33,-1.33,0,*60
1508983241.09,31326,12.25,74014.8,-0.53,-1.33,-1.29,0,*68
1508983242.3,31327,12.25,74016.0,-0.55,-1.29,-1.29,0,*64
1508983243.52,31328,12.25,74020.5,-0.55,-1.29,-1.29,0,*6B
1508983244.71,31329,12.25,74026.0,-0.53,-1.29,-1.29,0,*6C
1508983245.92,31330,12.25,74026.8,-0.55,-1.33,-1.33,0,*62
1508983247.14,31331,12.25,74020.8,-0.53,-1.33,-1.39,0,*6F
1508983248.35,31332,12.25,74020.0,-0.55,-1.33,-1.33,0,*60
1508983249.57,31333,12.25,74018.5,-0.55,-1.29,-1.33,0,*6A
1508983250.78,31334,12.25,74018.5,-0.55,-1.25,-1.33,0,*61
1508983251.99,31335,12.25,74024.8,-0.55,-1.29,-1.33,0,*6C
1508983253.23,31336,12.25,74006.3,-0.53,-1.43,-1.43,0,*62
1508983254.42,31337,12.25,73990.0,-0.53,-1.51,-1.51,0,*63
1508983255.62,31338,12.25,73998.0,-0.55,-1.51,-1.55,0,*6E
1508983256.83,31339,12.25,74002.8,-0.55,-1.75,-1.75,0,*6B
1508983258.1,31340,12.25,74002.3,-0.55,-1.87,-1.91,0,*62
1508983259.31,31341,12.25,73992.5,-0.53,-2.15,-2.03,0,*65
1508983260.58,31342,12.25,73988.0,-0.55,-1.99,-1.99,0,*67
1508983261.82,31343,12.25,73984.5,-0.57,-1.95,-2.03,0,*68
1508983263.01,31344,12.25,73980.0,-0.57,-1.79,-1.71,0,*6B
1508983264.19,31345,12.25,73968.5,-0.57,-1.59,-1.59,0,*62
1508983265.44,31346,12.25,73952.5,-0.57,-1.43,-1.47,0,*65
1508983266.65,31347,12.25,73962.0,-0.59,-1.59,-1.55,0,*62
1508983267.86,31348,12.25,73976.8,-0.55,-1.67,-1.63,0,*69
1508983269.05,31349,12.25,73968.8,-0.57,-1.79,-1.79,0,*6E
1508983270.27,31350,12.25,73978.3,-0.57,-1.83,-1.79,0,*63
1508983271.45,31351,12.25,73996.3,-0.57,-1.59,-1.59,0,*67
1508983272.64,31352,12.25,73998.0,-0.57,-1.55,-1.67,0,*65
1508983273.85,31353,12.25,73996.5,-0.59,-1.55,-1.55,0,*6B
1508983275.1,31354,12.25,73996.3,-0.57,-1.47,-1.47,0,*62
1508983276.34,31355,12.25,73992.3,-0.57,-1.43,-1.43,0,*63
1508983277.52,31356,12.25,74002.3,-0.57,-1.55,-1.59,0,*6C
1508983278.74,31357,12.25,74022.3,-0.57,-1.47,-1.55,0,*62
1508983279.95,31358,12.25,74012.3,-0.57,-1.55,-1.47,0,*6D
1508983281.19,31359,12.25,74022.8,-0.59,-1.55,-1.43,0,*66
1508983282.44,31360,12.25,74022.3,-0.57,-1.43,-1.35,0,*64
1508983283.65,31361,12.25,74018.0,-0.57,-1.55,-1.35,0,*62
1508983284.84,31362,12.25,74024.0,-0.57,-0.73,-0.81,0,*6A
1508983286.07,31363,12.25,74014.0,-0.57,-1.09,-1.09,0,*66
1508983287.26,31364,12.25,74014.8,-0.57,-1.33,-1.33,0,*61
1508983288.45,31365,12.25,74018.8,-0.57,-1.29,-1.29,0,*60
1508983289.64,31366,12.25,74018.8,-0.57,-1.33,-1.33,0,*63
1508983290.83,31367,12.25,74020.8,-0.57,-1.29,-1.33,0,*69
1508983292.02,31368,12.25,74024.5,-0.57,-1.33,-1.33,0,*6D
1508983293.26,31369,12.25,74022.5,-0.55,-1.51,-1.39,0,*60
1508983294.52,31370,12.25,74020.3,-0.55,-1.43,-1.43,0,*66
1508983295.73,31371,12.25,74012.3,-0.55,-1.51,-1.51,0,*67
1508983296.94,31372,12.25,74018.0,-0.55,-1.55,-1.55,0,*64
1508983298.15,31373,12.25,74020.3,-0.55,-1.55,-1.63,0,*60
1508983299.42,31374,12.25,74026.5,-0.55,-1.43,-1.43,0,*62
1508983300.66,31375,12.25,74014.5,-0.57,-1.43,-1.43,0,*61
1508983301.9,31376,12.25,74016.3,-0.57,-1.47,-1.43,0,*66
1508983303.14,31377,12.25,74016.8,-0.57,-1.47,-1.47,0,*63
1508983304.38,31378,12.25,74036.0,-0.57,-1.35,-1.35,0,*6C
1508983305.62,31379,12.25,74036.3,-0.57,-1.35,-1.35,0,*6D
1508983306.86,31380,12.25,74030.0,-0.57,-1.35,-1.43,0,*6A
1508983308.11,31381,12.25,74024.0,-0.57,-1.47,-1.47,0,*6A
1508983309.35,31382,12.25,74022.0,-0.57,-1.43,-1.35,0,*68
1508983310.61,31383,12.25,74044.8,-0.55,-1.43,-1.43,0,*6A
1508983311.86,31384,12.25,74042.5,-0.55,-1.33,-1.39,0,*67
1508983313.07,31385,12.25,74030.5,-0.55,-1.33,-1.33,0,*6C
1508983314.28,31386,12.25,74026.8,-0.55,-1.33,-1.33,0,*6F
1508983315.53,31387,12.25,74018.3,-0.53,-1.43,-1.39,0,*65
1508983316.74,31388,12.25,74012.5,-0.53,-1.33,-1.43,0,*60
1508983317.96,31389,12.25,74012.3,-0.55,-1.33,-1.33,0,*60
1508983319.17,31390,12.25,74026.0,-0.55,-1.33,-1.33,0,*68
1508983320.39,31391,12.25,74038.3,-0.55,-1.33,-1.33,0,*69
1508983321.6,31392,12.25,74030.3,-0.53,-1.51,-1.39,0,*62
1508983322.8,31393,12.25,74024.5,-0.55,-1.51,-1.51,0,*6B
1508983324.07,31394,12.25,74036.3,-0.55,-1.43,-1.43,0,*6C
1508983325.31,31395,12.25,74044.3,-0.55,-1.43,-1.51,0,*6E
1508983326.57,31396,12.25,74040.5,-0.55,-1.05,-1.13,0,*69
1508983327.78,31397,12.25,74046.8,-0.55,-1.33,-1.33,0,*6F
1508983329.0,31398,12.25,74036.5,-0.55,-1.55,-1.63,0,*65
1508983330.18,31399,12.25,74036.5,-0.53,-1.79,-1.75,0,*6B
1508983331.45,31400,12.25,74032.8,-0.55,-1.91,-1.91,0,*66
1508983332.64,31401,12.25,74028.5,-0.57,-2.19,-2.31,0,*6F
1508983333.85,31402,12.25,74032.0,-0.57,-2.15,-2.07,0,*65
1508983335.07,31403,12.25,74028.3,-0.59,-2.19,-2.23,0,*60
1508983336.29,31404,12.25,74022.5,-0.59,-2.35,-2.35,0,*6E
1508983337.51,31405,12.25,74014.3,-0.59,-2.19,-2.19,0,*6F
1508983338.72,31406,12.25,74014.5,-0.59,-2.35,-2.35,0,*6C
1508983339.91,31407,12.25,74008.3,-0.61,-2.23,-2.23,0,*66
1508983341.18,31408,12.25,74010.8,-0.63,-2.11,-2.11,0,*6B
1508983342.45,31409,12.25,74010.8,-0.63,-1.87,-1.95,0,*69
1508983343.71,31410,12.25,74008.5,-0.63,-1.87,-1.87,0,*62
1508983344.93,31411,12.25,74012.3,-0.63,-1.63,-1.63,0,*63
1508983346.14,31412,12.25,74008.5,-0.63,-1.63,-1.59,0,*69
1508983347.41,31413,12.25,74012.3,-0.63,-1.83,-1.83,0,*61
1508983348.68,31414,12.25,74006.5,-0.63,-1.87,-1.99,0,*69
1508983349.95,31415,12.25,74006.3,-0.63,-1.95,-1.99,0,*6B
1508983351.16,31416,12.25,74006.8,-0.63,-1.75,-1.63,0,*63
1508983352.37,31417,12.25,74002.3,-0.63,-1.51,-1.63,0,*64
1508983353.65,31418,12.25,73998.5,-0.63,-1.39,-1.39,0,*6A
1508983354.92,31419,12.25,74002.5,-0.63,-1.47,-1.47,0,*6B
1508983356.16,31420,12.25,74014.3,-0.61,-1.47,-1.47,0,*63
1508983357.34,31421,12.25,74012.5,-0.61,-1.59,-1.51,0,*6A
1508983358.54,31422,12.25,74016.8,-0.61,-1.75,-1.71,0,*65
1508983359.75,31423,12.25,74002.3,-0.63,-1.63,-1.63,0,*62
1508983360.93,31424,12.25,74000.8,-0.61,-1.59,-1.51,0,*6F
1508983362.12,31425,12.25,74006.8,-0.61,-1.59,-1.63,0,*6F
1508983363.3,31426,12.25,74010.8,-0.61,-1.59,-1.51,0,*6D
1508983364.51,31427,12.25,74014.8,-0.61,-1.51,-1.47,0,*63
1508983365.7,31428,12.25,74014.0,-0.61,-1.59,-1.51,0,*63
1508983366.88,31429,12.25,74010.0,-0.61,-1.59,-1.59,0,*6A
1508983368.11,31430,12.25,74008.3,-0.61,-1.95,-1.95,0,*62
1508983369.31,31431,12.25,74014.5,-0.61,-1.71,-1.71,0,*63
1508983370.55,31432,12.25,74010.0,-0.61,-1.39,-1.35,0,*6C
1508983371.8,31433,12.25,74012.5,-0.61,-1.47,-1.39,0,*68
1508983373.07,31434,12.25,74014.0,-0.63,-1.47,-1.47,0,*64
1508983374.31,31435,12.25,74012.5,-0.61,-1.39,-1.39,0,*67
1508983375.55,31436,12.25,74008.0,-0.61,-2.07,-2.11,0,*63
1508983376.8,31437,12.25,74012.8,-0.61,-2.11,-2.11,0,*65
1508983378.01,31438,12.25,74006.0,-0.63,-2.23,-2.19,0,*61
1508983379.29,31439,12.25,74012.0,-0.63,-2.11,-2.07,0,*6E
1508983380.56,31440,12.25,74010.3,-0.63,-1.99,-1.99,0,*67
1508983381.83,31441,12.25,74008.3,-0.63,-2.07,-2.07,0,*66
1508983383.08,31442,12.25,74014.0,-0.61,-2.07,-1.99,0,*63
1508983384.29,31443,12.25,74018.0,-0.63,-2.39,-2.39,0,*64
1508983385.56,31444,12.25,73996.8,-0.63,-1.95,-1.99,0,*6F
1508983386.83,31445,12.25,74000.8,-0.67,-1.87,-1.91,0,*61
1508983388.1,31446,12.25,74000.0,-0.67,-1.99,-2.03,0,*65
1508983389.34,31447,12.25,74002.3,-0.69,-1.95,-1.91,0,*6E
1508983390.58,31448,12.25,74008.0,-0.69,-1.83,-1.83,0,*65
1508983391.82,31449,12.25,74008.3,-0.69,-1.91,-1.91,0,*64
1508983393.04,31450,12.25,74008.5,-0.67,-1.67,-1.67,0,*62
1508983394.25,31451,12.25,74006.5,-0.67,-1.79,-1.79,0,*63
1508983395.44,31452,12.25,74006.0,-0.69,-1.55,-1.67,0,*6F
1508983396.65,31453,12.25,74010.5,-0.67,-1.51,-1.55,0,*65
1508983397.84,31454,12.25,74020.5,-0.69,-1.67,-1.59,0,*65
1508983399.11,31455,12.25,74004.8,-0.63,-1.87,-1.87,0,*63
1508983400.32,31456,12.25,74010.3,-0.67,-1.79,-1.75,0,*68
1508983401.54,31457,12.25,74002.3,-0.67,-1.79,-1.79,0,*65
1508983402.8,31458,12.25,74012.0,-0.67,-1.91,-1.91,0,*6A
1508983404.01,31459,12.25,74000.5,-0.67,-1.55,-1.55,0,*6B
1508983405.26,31460,12.25,73996.3,-0.69,-2.03,-2.07,0,*6B
1508983406.48,31461,12.25,74010.5,-0.69,-1.83,-1.79,0,*6B
1508983407.67,31462,12.25,74000.3,-0.69,-1.67,-1.67,0,*6D
1508983408.88,31463,12.25,74014.0,-0.69,-1.55,-1.47,0,*6F
1508983410.09,31464,12.25,74020.5,-0.67,-1.51,-1.51,0,*65
1508983411.34,31465,12.25,74022.8,-0.67,-1.43,-1.55,0,*63
1508983412.55,31466,12.25,74024.5,-0.67,-1.55,-1.55,0,*67
1508983413.76,31467,12.25,74020.5,-0.67,-1.67,-1.55,0,*67
1508983414.98,31468,12.25,74018.3,-0.67,-1.67,-1.63,0,*6D
1508983416.19,31469,12.25,74018.8,-0.67,-1.63,-1.55,0,*6D
1508983417.43,31470,12.25,74026.3,-0.69,-1.47,-1.47,0,*6E
1508983418.65,31471,12.25,74030.3,-0.67,-1.67,-1.63,0,*65
1508983419.91,31472,12.25,74016.3,-0.67,-1.91,-1.91,0,*62
1508983421.1,31473,12.25,74014.8,-0.69,-1.67,-1.67,0,*6D
1508983422.29,31474,12.25,74026.3,-0.69,-1.51,-1.51,0,*6A
1508983423.56,31475,12.25,74034.0,-0.67,-1.43,-1.43,0,*65
1508983424.8,31476,12.25,74036.5,-0.67,-1.51,-1.43,0,*65
1508983425.99,31477,12.25,74026.3,-0.69,-1.63,-1.67,0,*6D
1508983427.2,31478,12.25,74036.8,-0.67,-1.79,-1.79,0,*68
1508983428.42,31479,12.25,74030.3,-0.67,-1.67,-1.55,0,*68
1508983429.63,31480,12.25,74034.3,-0.67,-1.63,-1.55,0,*6A
1508983430.84,31481,12.25,74034.5,-0.67,-1.55,-1.55,0,*6E
1508983432.03,31482,12.25,74026.8,-0.69,-1.67,-1.67,0,*63
1508983433.28,31483,12.25,74032.5,-0.67,-1.43,-1.51,0,*6F
1508983434.55,31484,12.25,74034.0,-0.67,-1.43,-1.43,0,*6B
1508983435.82,31485,12.25,74036.3,-0.67,-1.39,-1.35,0,*66
1508983437.09,31486,12.25,74038.0,-0.67,-1.39,-1.39,0,*69
1508983438.36,31487,12.25,74036.0,-0.67,-1.43,-1.43,0,*68
1508983439.58,31488,12.25,74040.3,-0.63,-1.63,-1.63,0,*63
1508983440.78,31489,12.25,74026.5,-0.63,-1.59,-1.59,0,*62
1508983441.99,31490,12.25,74020.0,-0.63,-1.59,-1.63,0,*63
1508983443.21,31491,12.25,74024.3,-0.67,-1.67,-1.55,0,*6E
1508983444.43,31492,12.25,74026.0,-0.67,-1.67,-1.67,0,*6C
1508983445.64,31493,12.25,74038.5,-0.67,-1.55,-1.63,0,*68
1508983446.92,31494,12.25,74020.8,-0.67,-1.99,-1.99,0,*6A
1508983448.19,31495,12.25,74010.0,-0.67,-2.03,-2.03,0,*6B
1508983449.43,31496,12.25,74002.5,-0.67,-1.91,-1.79,0,*6E
1508983450.64,31497,12.25,74010.0,-0.67,-1.55,-1.55,0,*69
1508983451.91,31498,12.25,74020.3,-0.67,-1.43,-1.43,0,*66
1508983453.18,31499,12.25,74036.5,-0.67,-1.43,-1.43,0,*67
1508983454.39,31500,12.25,74016.8,-0.67,-1.63,-1.55,0,*63
1508983455.64,31501,12.25,74026.0,-0.67,-2.11,-2.15,0,*63
1508983456.9,31502,12.25,74036.0,-0.67,-1.91,-2.03,0,*6C
1508983458.09,31503,12.25,74032.3,-0.69,-2.27,-2.19,0,*66
1508983459.3,31504,12.25,74038.8,-0.67,-2.23,-2.15,0,*67
1508983460.5,31505,12.25,74024.8,-0.69,-1.79,-1.71,0,*65
1508983461.7,31506,12.25,74034.3,-0.71,-1.59,-1.55,0,*6B
1508983462.92,31507,12.25,74038.8,-0.69,-1.55,-1.47,0,*6C
1508983464.13,31508,12.25,74034.8,-0.67,-1.67,-1.51,0,*6B
1508983465.31,31509,12.25,74046.3,-0.69,-1.59,-1.59,0,*61
1508983466.51,31510,12.25,74040.3,-0.69,-1.71,-1.71,0,*69
1508983467.73,31511,12.25,74042.3,-0.69,-1.29,-1.39,0,*69
1508983468.92,31512,12.25,74040.8,-0.69,-1.67,-1.67,0,*6B
1508983470.14,31513,12.25,74046.5,-0.67,-1.67,-1.63,0,*60
1508983471.35,31514,12.25,74048.0,-0.67,-1.75,-1.75,0,*63
1508983472.54,31515,12.25,74044.0,-0.69,-1.67,-1.79,0,*63
1508983473.76,31516,12.25,74038.8,-0.67,-1.75,-1.79,0,*6D
1508983475.03,31517,12.25,74034.5,-0.67,-1.87,-1.99,0,*6F
1508983476.29,31518,12.25,74036.8,-0.67,-1.91,-1.91,0,*6F
1508983477.57,31519,12.25,74014.0,-0.67,-2.11,-2.11,0,*6E
1508983478.78,31520,12.25,74014.5,-0.69,-2.07,-2.15,0,*69
1508983480.05,31521,12.25,74018.0,-0.67,-1.99,-1.91,0,*6D
1508983481.3,31522,12.25,73998.3,-0.69,-2.07,-2.03,0,*6C
1508983482.54,31523,12.25,74002.8,-0.69,-2.55,-2.47,0,*6A
1508983483.75,31524,12.25,74002.3,-0.71,-2.43,-2.31,0,*62
1508983484.97,31525,12.25,74016.3,-0.71,-2.43,-2.35,0,*67
1508983486.18,31526,12.25,74028.0,-0.71,-2.19,-2.19,0,*65
1508983487.42,31527,12.25,74006.8,-0.73,-2.07,-1.99,0,*62
1508983488.61,31528,12.25,74002.5,-0.73,-1.71,-1.63,0,*6A
1508983489.85,31529,12.25,74002.8,-0.71,-1.55,-1.47,0,*69
1508983491.06,31530,12.25,73998.0,-0.71,-1.55,-1.55,0,*62
1508983492.33,31531,12.25,73988.8,-0.71,-2.03,-2.07,0,*67
1508983493.54,31532,12.25,73984.0,-0.71,-2.27,-2.15,0,*61
1508983494.75,31533,12.25,73998.8,-0.71,-2.15,-2.15,0,*61
1508983495.98,31534,12.25,74002.0,-0.73,-1.87,-1.95,0,*67
1508983497.22,31535,12.25,74000.0,-0.73,-2.11,-2.11,0,*65
1508983498.42,31536,12.25,73986.5,-0.73,-2.31,-2.31,0,*66
1508983499.66,31537,12.25,73986.5,-0.73,-1.83,-1.83,0,*67
1508983500.9,31538,12.25,73982.3,-0.73,-2.07,-2.07,0,*68
1508983502.12,31539,12.25,73988.5,-0.73,-2.11,-2.23,0,*68
1508983503.3,31540,12.25,73972.3,-0.73,-2.19,-2.19,0,*67
1508983504.49,31541,12.25,73990.5,-0.73,-2.23,-2.19,0,*6F
1508983505.72,31542,12.25,73998.5,-0.73,-1.87,-1.87,0,*65
1508983506.91,31543,12.25,74000.3,-0.73,-1.75,-1.75,0,*64
1508983508.12,31544,12.25,73996.8,-0.73,-1.59,-1.47,0,*6C
1508983509.33,31545,12.25,74018.8,-0.75,-1.59,-1.59,0,*64
1508983510.51,31546,12.25,74012.0,-0.73,-1.51,-1.51,0,*61
1508983511.69,31547,12.25,74008.0,-0.73,-1.51,-1.51,0,*60
1508983512.93,31548,12.25,74016.5,-0.73,-1.47,-1.47,0,*6F
1508983514.2,31549,12.25,74016.0,-0.71,-1.39,-1.39,0,*6C
1508983515.44,31550,12.25,74010.8,-0.73,-1.47,-1.35,0,*63
1508983516.68,31551,12.25,74008.8,-0.73,-1.47,-1.43,0,*63
1508983517.9,31552,12.25,74004.5,-0.71,-1.33,-1.29,0,*6D
1508983519.17,31553,12.25,74010.3,-0.71,-1.39,-1.39,0,*67
1508983520.41,31554,12.25,74008.5,-0.69,-1.43,-1.43,0,*69
1508983521.59,31555,12.25,74004.5,-0.69,-1.59,-1.55,0,*64
1508983522.83,31556,12.25,74008.5,-0.69,-1.47,-1.47,0,*6B
1508983524.08,31557,12.25,74014.8,-0.69,-1.47,-1.47,0,*6A
1508983525.32,31558,12.25,74016.8,-0.69,-1.47,-1.47,0,*65
1508983526.5,31559,12.25,74018.8,-0.69,-0.73,-0.69,0,*6F
1508983527.78,31560,12.25,74028.5,-0.67,-1.05,-1.05,0,*60
1508983528.99,31561,12.25,74030.0,-0.67,-1.29,-1.29,0,*61
1508983530.24,31562,12.25,74030.3,-0.69,-1.39,-1.43,0,*61
1508983531.51,31563,12.25,74030.3,-0.67,-1.39,-1.39,0,*63
1508983532.76,31564,12.25,74030.0,-0.67,-1.43,-1.51,0,*67
1508983533.95,31565,12.25,74042.5,-0.69,-1.67,-1.67,0,*6B
1508983535.19,31566,12.25,74046.8,-0.67,-1.43,-1.55,0,*61
1508983536.41,31567,12.25,74050.3,-0.67,-1.63,-1.63,0,*67
1508983537.64,31568,12.25,74048.5,-0.69,-1.95,-1.95,0,*66
1508983538.91,31569,12.25,74044.8,-0.63,-1.83,-1.87,0,*69
1508983540.14,31570,12.25,74040.5,-0.69,-1.91,-1.91,0,*6F
1508983541.36,31571,12.25,74040.3,-0.67,-1.79,-1.79,0,*60
1508983542.57,31572,12.25,74038.0,-0.67,-1.55,-1.51,0,*67
1508983543.79,31573,12.25,74030.3,-0.67,-1.67,-1.79,0,*6D
1508983545.03,31574,12.25,74030.8,-0.67,-1.79,-1.87,0,*64
1508983546.22,31575,12.25,74016.8,-0.69,-1.79,-1.79,0,*6A
1508983547.42,31576,12.25,74006.8,-0.69,-1.71,-1.67,0,*6E
1508983548.66,31577,12.25,74004.8,-0.69,-1.83,-1.83,0,*68
1508983549.87,31578,12.25,74000.5,-0.69,-1.79,-1.83,0,*62
1508983551.11,31579,12.25,73998.3,-0.69,-1.83,-1.95,0,*61
1508983552.38,31580,12.25,74010.0,-0.67,-2.03,-2.03,0,*6E
1508983553.59,31581,12.25,74010.0,-0.67,-1.79,-1.79,0,*6F
1508983554.79,31582,12.25,74006.0,-0.69,-1.71,-1.71,0,*62
1508983555.97,31583,12.25,74014.8,-0.69,-1.59,-1.59,0,*63
1508983557.21,31584,12.25,74014.8,-0.69,-1.47,-1.47,0,*64
1508983558.4,31585,12.25,74022.8,-0.69,-1.55,-1.55,0,*65
1508983559.58,31586,12.25,74030.5,-0.69,-1.67,-1.59,0,*6B
1508983560.8,31587,12.25,74034.8,-0.69,-1.83,-1.79,0,*62
1508983561.99,31588,12.25,74036.8,-0.69,-1.79,-1.79,0,*68
1508983563.23,31589,12.25,74034.3,-0.69,-1.95,-1.83,0,*6E
1508983564.47,31590,12.25,74038.8,-0.69,-1.95,-2.03,0,*6D
1508983565.7,31591,12.25,74036.3,-0.71,-1.91,-1.79,0,*6F
1508983566.96,31592,12.25,74042.3,-0.71,-2.03,-1.95,0,*66
1508983568.23,31593,12.25,74042.5,-0.71,-1.95,-2.03,0,*67
1508983569.49,31594,12.25,74038.3,-0.71,-1.95,-2.03,0,*60
1508983570.75,31595,12.25,74038.5,-0.71,-1.95,-1.91,0,*69
1508983572.02,31596,12.25,74034.3,-0.71,-2.07,-2.07,0,*6E
1508983573.26,31597,12.25,74026.8,-0.73,-1.95,-1.99,0,*61
1508983574.53,31598,12.25,74032.8,-0.71,-2.03,-2.07,0,*64
1508983575.71,31599,12.25,74030.0,-0.73,-2.19,-2.19,0,*63
1508983576.9,31600,12.25,74022.5,-0.73,-2.19,-2.23,0,*69
1508983578.11,31601,12.25,74030.0,-0.71,-2.35,-2.43,0,*62
1508983579.32,31602,12.25,74022.5,-0.73,-2.47,-2.39,0,*6B
1508983580.56,31603,12.25,74022.0,-0.73,-2.51,-2.51,0,*63
1508983581.75,31604,12.25,74020.8,-0.73,-2.39,-2.35,0,*68
1508983582.94,31605,12.25,74014.8,-0.77,-2.23,-2.23,0,*61
1508983584.18,31606,12.25,74018.5,-0.75,-1.83,-1.75,0,*69
1508983585.4,31607,12.25,74024.5,-0.75,-1.63,-1.63,0,*61
1508983586.63,31608,12.25,74010.0,-0.77,-1.91,-1.87,0,*6B
1508983587.89,31609,12.25,74006.5,-0.75,-1.95,-1.95,0,*6F
1508983589.17,31610,12.25,74012.8,-0.75,-1.99,-2.07,0,*63
1508983590.44,31611,12.25,74014.5,-0.75,-1.99,-2.07,0,*62
1508983591.66,31612,12.25,74010.8,-0.77,-1.87,-1.79,0,*66
1508983592.87,31613,12.25,74006.8,-0.75,-1.59,-1.51,0,*6C
1508983594.14,31614,12.25,74010.5,-0.75,-1.47,-1.47,0,*63
1508983595.41,31615,12.25,74008.3,-0.75,-1.47,-1.43,0,*66
1508983596.65,31616,12.25,74008.8,-0.73,-1.35,-1.43,0,*66
1508983597.89,31617,12.25,74012.8,-0.73,-1.35,-1.35,0,*66
1508983599.13,31618,12.25,73988.5,-0.75,-1.47,-1.51,0,*68
1508983600.37,31619,12.25,73970.0,-0.75,-1.83,-1.75,0,*67
1508983601.63,31620,12.25,73960.8,-0.71,-1.95,-1.95,0,*60
1508983602.87,31621,12.25,73978.8,-0.73,-2.07,-2.11,0,*64
1508983604.05,31622,12.25,73970.0,-0.73,-2.19,-2.19,0,*60
1508983605.3,31623,12.25,73974.5,-0.73,-2.11,-1.99,0,*62
1508983606.58,31624,12.25,73986.8,-0.75,-1.99,-1.99,0,*60
1508983607.84,31625,12.25,73964.5,-0.75,-1.99,-1.95,0,*6D
1508983609.08,31626,12.25,73972.8,-0.75,-1.35,-1.21,0,*67
1508983610.35,31627,12.25,73984.8,-0.75,-1.47,-1.47,0,*63
1508983611.57,31628,12.25,73982.0,-0.75,-2.19,-2.19,0,*6C
1508983612.79,31629,12.25,73964.0,-0.75,-2.31,-2.35,0,*69
1508983614.01,31630,12.25,73986.5,-0.75,-2.31,-2.23,0,*66
1508983615.25,31631,12.25,73990.5,-0.75,-2.19,-1.99,0,*6F
1508983616.49,31632,12.25,73976.5,-0.75,-2.19,-2.11,0,*6F
1508983617.68,31633,12.25,73976.3,-0.77,-2.23,-2.23,0,*64
1508983618.92,31634,12.25,73978.0,-0.77,-2.03,-2.03,0,*63
1508983620.19,31635,12.25,73964.0,-0.75,-1.99,-1.95,0,*6C
1508983621.4,31636,12.25,73988.0,-0.77,-2.15,-2.11,0,*65
1508983622.64,31637,12.25,73976.5,-0.77,-1.91,-1.91,0,*60
1508983623.86,31638,12.25,73980.8,-0.77,-1.87,-1.67,0,*61
1508983625.08,31639,12.25,73982.3,-0.75,-1.63,-1.51,0,*6D
1508983626.28,31640,12.25,73976.3,-0.75,-1.59,-1.59,0,*62
1508983627.49,31641,12.25,73984.8,-0.75,-1.59,-1.63,0,*6A
1508983628.71,31642,12.25,73992.3,-0.75,-1.75,-1.71,0,*64
1508983629.92,31643,12.25,73990.8,-0.75,-1.51,-1.59,0,*69
1508983631.13,31644,12.25,73990.0,-0.75,-1.51,-1.59,0,*6E
1508983632.4,31645,12.25,74006.3,-0.75,-1.43,-1.35,0,*66
1508983633.67,31646,12.25,73996.8,-0.75,-1.47,-1.47,0,*64
1508983634.94,31647,12.25,74008.3,-0.75,-1.47,-1.47,0,*65
1508983636.12,31648,12.25,73984.8,-0.73,-1.51,-1.51,0,*6C
1508983637.31,31649,12.25,73998.8,-0.73,-1.33,-1.25,0,*6A
1508983638.52,31650,12.25,73996.3,-0.73,-1.21,-1.09,0,*6F
1508983639.7,31651,12.25,73994.0,-0.73,-1.25,-1.25,0,*64
1508983640.92,31652,12.25,73988.3,-0.71,-1.29,-1.17,0,*68
1508983642.12,31653,12.25,74004.5,-0.71,-0.69,-0.69,0,*64
1508983643.36,31654,12.25,74024.0,-0.73,-1.35,-1.35,0,*61
1508983644.61,31655,12.25,73982.5,-0.71,-1.39,-1.21,0,*6B
1508983645.83,31656,12.25,73982.5,-0.71,-1.33,-1.21,0,*62
1508983647.1,31657,12.25,73992.3,-0.71,-1.47,-1.43,0,*64
1508983648.31,31658,12.25,73998.5,-0.69,-1.43,-1.21,0,*62
1508983649.55,31659,12.25,73990.5,-0.69,-1.39,-1.09,0,*64
1508983650.77,31660,12.25,74002.0,-0.69,-1.47,-1.29,0,*65
1508983652.0,31661,12.25,74004.3,-0.67,-0.89,-0.81,0,*6A
1508983653.23,31662,12.25,74000.8,-0.67,-0.93,-0.77,0,*6B
1508983654.45,31663,12.25,74014.8,-0.67,-1.25,-1.17,0,*61
1508983655.67,31664,12.25,74008.8,-0.67,-1.17,-1.17,0,*67
1508983656.88,31665,12.25,74014.5,-0.67,-1.25,-1.25,0,*66
1508983658.11,31666,12.25,74016.5,-0.67,-1.17,-1.17,0,*65
1508983659.38,31667,12.25,74024.3,-0.67,-1.05,-1.05,0,*64
1508983660.65,31668,12.25,74024.5,-0.67,-1.05,-1.05,0,*6B
1508983661.91,31669,12.25,74024.5,-0.63,-1.01,-1.09,0,*66
1508983663.17,31670,12.25,74028.3,-0.63,-1.09,-0.97,0,*50
1508983664.39,31671,12.25,74032.8,-0.61,-0.89,-0.97,0,*6A
1508983665.65,31672,12.25,74038.8,-0.63,-1.01,-0.97,0,*5A
1508983666.91,31673,12.25,74034.8,-0.63,-0.97,-0.97,0,*65
1508983668.14,31674,12.25,74044.3,-0.61,-0.97,-1.01,0,*5E
1508983669.4,31675,12.25,74040.8,-0.59,-0.85,-0.93,0,*6D
1508983670.61,31676,12.25,74030.3,-0.59,-0.69,-0.69,0,*69
1508983671.86,31677,12.25,74038.0,-0.59,-0.85,-0.85,0,*68
1508983673.09,31678,12.25,74038.8,-0.57,-0.93,-0.85,0,*6E
1508983674.36,31679,12.25,74040.0,-0.59,-1.05,-1.05,0,*66
1508983675.63,31680,12.25,74042.0,-0.59,-1.05,-1.05,0,*60
1508983676.89,31681,12.25,74044.8,-0.59,-0.93,-0.93,0,*61
1508983678.11,31682,12.25,74040.3,-0.57,-0.97,-0.97,0,*6C
1508983679.38,31683,12.25,74050.3,-0.59,-1.09,-1.05,0,*6F
1508983680.62,31684,12.25,74044.0,-0.57,-1.05,-1.09,0,*66
1508983681.84,31685,12.25,74052.8,-0.57,-1.17,-1.05,0,*68
1508983683.07,31686,12.25,74038.8,-0.57,-0.97,-0.93,0,*6C
1508983684.31,31687,12.25,74032.8,-0.57,-1.09,-1.09,0,*69
1508983685.55,31688,12.25,74028.3,-0.57,-1.05,-1.05,0,*66
1508983686.78,31689,12.25,74028.3,-0.57,-1.09,-1.09,0,*67
1508983688.02,31690,12.25,74028.0,-0.57,-1.05,-0.97,0,*55
1508983689.28,31691,12.25,74026.3,-0.55,-1.01,-0.93,0,*56
1508983690.52,31692,12.25,74020.5,-0.55,-0.93,-0.93,0,*6F
1508983691.77,31693,12.25,74026.0,-0.55,-0.93,-0.93,0,*6E
1508983693.01,31694,12.25,74026.8,-0.53,-1.01,-1.05,0,*6B
1508983694.2,31695,12.25,74020.5,-0.53,-1.25,-1.29,0,*62
1508983695.39,31696,12.25,74022.3,-0.57,-1.17,-1.17,0,*69
1508983696.65,31697,12.25,74022.3,-0.55,-1.13,-1.13,0,*6A
1508983697.89,31698,12.25,74030.8,-0.55,-1.17,-1.13,0,*61
1508983699.1,31699,12.25,74032.0,-0.53,-1.17,-1.13,0,*66
1508983700.32,31700,12.25,74030.8,-0.53,-1.13,-1.17,0,*67
1508983701.53,31701,12.25,74034.3,-0.55,-1.29,-1.29,0,*64
1508983702.72,31702,12.25,74032.5,-0.53,-1.25,-1.29,0,*6D
1508983703.91,31703,12.25,74024.3,-0.53,-1.25,-1.29,0,*6C
1508983705.12,31704,12.25,74026.5,-0.53,-1.17,-1.13,0,*63
1508983706.34,31705,12.25,74018.8,-0.53,-1.13,-1.17,0,*62
1508983707.57,31706,12.25,74028.8,-0.53,-0.93,-1.05,0,*5B